Location: Helion Bumpstead
(52.0500°N, 0.4000°E)
Time: 11:04:01
(UTC+00:00)

Cosmos 676 Rocket - Pass Details

Date: 15 November 2025
Orbit: 750 x 779 km, 74.0° (Epoch: 10 December)

Event Time Altitude Azimuth Distance (km) Brightness Sun altitude
Exits shadow 05:14:57 28° 313° (NW) 1,397 4.9 -18.8°
Maximum altitude 05:17:22 51° 253° (WSW) 962 4.1 -18.4°
Drops below altitude 10° 05:22:21 10° 179° (S) 2,281 6.6 -17.7°
Sets 05:24:45 0° 174° (S) 3,198 7.4 -17.3°
